Simultaneous Nadir Overpasses (SNOs) Predictions

Prediction of SNOs near US between AQUA and NPP Satellite Orbit:

Table of predicted SNOs near US for the next 10.0 days since TLE Epoch: 1/12/2018
Index Date (AQUA) Time (AQUA) AQUA Lat,Lon Date (NPP) Time (NPP) NPP Lat,Lon Distance(km) Time Diff (sec)
1 01/14/2018 06:30:33 46.28, -65.04 01/14/2018 06:30:36 46.69, -67.10 164.13 3
2 01/14/2018 08:08:25 49.90, -88.32 01/14/2018 08:11:01 50.42, -90.88 191.25 156
3 01/14/2018 09:47:17 49.91,-113.04 01/14/2018 09:52:28 50.53,-116.20 235.62 311
4 01/16/2018 19:06:34 49.96, -92.54 01/16/2018 19:01:15 49.60, -94.41 140.07 319
5 01/16/2018 20:45:27 49.95,-117.26 01/16/2018 20:42:44 49.55,-119.76 185.37 163
6 01/19/2018 10:12:20 26.63,-124.99 01/19/2018 10:05:50 25.88,-125.98 129.02 390
7 01/22/2018 07:18:59 49.93, -75.94 01/22/2018 07:20:12 50.35, -78.21 168.50 73
8 01/22/2018 08:57:52 49.93,-100.66 01/22/2018 09:01:39 50.52,-103.51 212.91 227




NCC Satellite Simultaneous Nadir Overpasses (SNOs) Prediction Service
